contact:dominique.lefevre@mio.osupytheas.fr, maurice.libes@osupytheas.fr, didier.mallarino@osupytheas.fr
Project:EMSO http://www.emso-fr.org/EMSO-France
Depth: 2436.0 m
Title:EMSO Ligure Ouest : Data MII capteur AQUADOPP
Date,Latitude,Longitude,X_East,Y_North,Z_Up,Amplitude_X,Amplitude_Y,Amplitude_Z,Batterie,SoundSpeed,Heading,Pitch,Roll,Pressure,TIS,Speed,Direction
, degrees North, degrees East, m.s-1, m.s-1,m.s-1, 1, 1, 1, Volt, m.s-1, degree, degree, degree, dbar, degree_C, m.s-1, degree
2022-02-12T00:04:03,42.805,6.029,0.045,0.001,0.022,104.0,108.0,102.0,13.3,1505.2,328.4,-0.8,1.9,2470.649,13.28,0.045,88.7
2022-02-12T00:07:03,42.805,6.029,0.044,-0.01,0.0,104.0,107.0,102.0,13.3,1505.2,326.8,-0.8,1.8,2470.67,13.28,0.045,102.8
2022-02-12T00:10:03,42.805,6.029,0.049,0.001,0.01,105.0,108.0,102.0,13.4,1505.2,328.3,-0.8,1.8,2470.715,13.28,0.049,88.8
2022-02-12T00:13:03,42.805,6.029,0.054,-0.012,0.003,106.0,106.0,102.0,13.4,1505.2,329.1,-0.8,1.8,2470.669,13.28,0.055,102.5
2022-02-12T00:16:03,42.805,6.029,0.084,-0.013,0.044,105.0,106.0,103.0,13.4,1505.2,328.8,-0.7,1.8,2470.661,13.28,0.084,98.8
2022-02-12T00:19:03,42.805,6.029,0.046,-0.012,0.007,104.0,107.0,103.0,13.3,1505.2,327.0,-0.8,1.8,2470.678,13.28,0.047,104.6
2022-02-12T00:22:03,42.805,6.029,0.063,0.002,0.002,104.0,105.0,102.0,13.4,1505.2,323.0,-0.8,1.8,2470.659,13.28,0.063,88.2
2022-02-12T00:25:03,42.805,6.029,0.088,-0.048,0.0,104.0,104.0,102.0,13.4,1505.2,326.4,-0.8,1.8,2470.662,13.28,0.1,118.6
2022-02-12T00:28:03,42.805,6.029,0.08,-0.048,-0.006,104.0,104.0,102.0,13.4,1505.2,327.1,-0.8,1.8,2470.675,13.28,0.093,121.0
2022-02-12T00:31:03,42.805,6.029,0.051,-0.047,-0.013,105.0,103.0,102.0,13.3,1505.2,330.2,-0.7,1.8,2470.608,13.28,0.069,132.7
2022-02-12T00:34:03,42.805,6.029,0.05,-0.041,-0.017,104.0,103.0,103.0,13.4,1505.2,328.0,-0.7,1.8,2470.705,13.28,0.064,129.3
2022-02-12T00:37:03,42.805,6.029,0.047,-0.029,-0.008,105.0,104.0,103.0,13.3,1505.2,327.6,-0.8,1.8,2470.697,13.28,0.055,121.7
2022-02-12T00:40:03,42.805,6.029,0.039,-0.024,0.014,106.0,104.0,102.0,13.3,1505.2,328.8,-0.7,1.8,2470.694,13.28,0.045,121.6
2022-02-12T00:43:03,42.805,6.029,0.051,-0.001,0.001,105.0,104.0,103.0,13.4,1505.2,324.6,-0.7,1.8,2470.666,13.28,0.051,91.1
2022-02-12T00:46:03,42.805,6.029,0.064,-0.029,0.001,105.0,104.0,103.0,13.4,1505.2,324.3,-0.7,1.8,2470.632,13.28,0.07,114.4
2022-02-12T00:49:03,42.805,6.029,0.048,-0.026,-0.001,106.0,104.0,103.0,13.4,1505.2,329.6,-0.7,1.8,2470.66,13.28,0.054,118.4
2022-02-12T00:52:03,42.805,6.029,0.056,-0.029,0.022,104.0,104.0,102.0,13.4,1505.2,328.3,-0.7,1.8,2470.683,13.28,0.063,117.4
2022-02-12T00:55:03,42.805,6.029,0.074,-0.024,-0.014,103.0,105.0,102.0,13.4,1505.2,328.2,-0.8,1.8,2470.69,13.28,0.077,108.0
2022-02-12T00:58:03,42.805,6.029,0.078,-0.02,0.003,105.0,104.0,102.0,13.4,1505.2,329.4,-0.8,1.8,2470.647,13.28,0.08,104.4
2022-02-12T01:04:03,42.805,6.029,0.068,-0.04,-0.019,107.0,105.0,103.0,13.4,1505.2,328.7,-0.8,1.8,2470.688,13.28,0.078,120.5
2022-02-12T01:07:03,42.805,6.029,0.043,-0.024,0.0,106.0,105.0,103.0,13.4,1505.2,325.2,-0.7,1.8,2470.659,13.28,0.049,119.2
2022-02-12T01:10:03,42.805,6.029,0.064,-0.025,0.006,104.0,105.0,102.0,13.3,1505.2,323.4,-0.7,1.8,2470.657,13.28,0.068,111.3
2022-02-12T01:13:03,42.805,6.029,0.065,-0.024,-0.012,106.0,103.0,102.0,13.4,1505.2,331.5,-0.7,1.8,2470.661,13.28,0.069,110.3
2022-02-12T01:16:03,42.805,6.029,0.054,-0.027,-0.031,104.0,104.0,103.0,13.4,1505.2,325.7,-0.7,1.8,2470.677,13.28,0.06,116.6
2022-02-12T01:19:03,42.805,6.029,0.065,-0.019,0.041,104.0,105.0,101.0,13.4,1505.2,329.0,-0.8,1.8,2470.678,13.28,0.067,106.3
2022-02-12T01:22:03,42.805,6.029,0.057,-0.046,-0.027,105.0,104.0,103.0,13.4,1505.2,326.3,-0.8,1.8,2470.673,13.28,0.073,128.9
2022-02-12T01:25:03,42.805,6.029,0.055,-0.041,-0.003,105.0,103.0,103.0,13.3,1505.2,329.5,-0.7,1.8,2470.71,13.28,0.068,126.7
2022-02-12T02:04:03,42.805,6.029,0.061,-0.05,-0.019,104.0,103.0,102.0,13.4,1505.1,328.9,-0.8,1.8,2470.922,13.27,0.078,129.3
2022-02-12T02:07:03,42.805,6.029,0.039,-0.026,-0.04,105.0,105.0,102.0,13.4,1505.1,326.4,-0.8,1.8,2470.885,13.27,0.046,123.7
2022-02-12T02:10:03,42.805,6.029,0.057,-0.041,-0.027,105.0,103.0,103.0,13.4,1505.2,328.7,-0.7,1.8,2470.836,13.28,0.07,125.7
2022-02-12T02:13:03,42.805,6.029,0.081,-0.047,-0.017,103.0,104.0,103.0,13.4,1505.2,324.0,-0.8,1.8,2470.821,13.28,0.093,120.1
2022-02-12T02:16:03,42.805,6.029,0.07,-0.045,0.006,104.0,104.0,102.0,13.3,1505.2,328.1,-0.7,1.8,2470.867,13.28,0.083,122.7
2022-02-12T02:19:03,42.805,6.029,0.062,-0.041,-0.015,104.0,104.0,103.0,13.3,1505.2,326.2,-0.8,1.8,2470.831,13.28,0.074,123.5
2022-02-12T02:22:03,42.805,6.029,0.074,-0.026,-0.011,106.0,106.0,100.0,13.4,1505.2,326.3,-0.7,1.8,2470.829,13.28,0.078,109.4
2022-02-12T02:25:03,42.805,6.029,0.043,-0.039,-0.013,104.0,105.0,102.0,13.4,1505.2,325.6,-0.8,1.9,2470.859,13.28,0.058,132.2
2022-02-12T02:28:03,42.805,6.029,0.062,-0.067,-0.009,105.0,105.0,102.0,13.4,1505.2,325.4,-0.8,1.8,2470.858,13.28,0.091,137.2
2022-02-12T02:31:03,42.805,6.029,0.058,-0.043,0.0,104.0,104.0,102.0,13.3,1505.2,329.5,-0.8,1.8,2470.833,13.28,0.072,126.6
2022-02-12T02:34:03,42.805,6.029,0.052,-0.056,0.009,105.0,104.0,102.0,13.4,1505.2,327.5,-0.7,1.8,2470.836,13.28,0.076,137.1
2022-02-12T02:37:03,42.805,6.029,0.054,-0.048,-0.028,104.0,104.0,103.0,13.4,1505.2,327.8,-0.8,1.8,2470.812,13.28,0.072,131.6
2022-02-12T02:40:03,42.805,6.029,0.048,-0.041,-0.016,103.0,103.0,102.0,13.4,1505.2,324.1,-0.7,1.8,2470.814,13.28,0.063,130.5
2022-02-12T02:43:03,42.805,6.029,0.044,-0.042,-0.016,104.0,102.0,102.0,13.4,1505.2,326.3,-0.7,1.8,2470.81,13.28,0.06,133.7
2022-02-12T02:46:03,42.805,6.029,0.045,-0.038,-0.003,104.0,103.0,102.0,13.3,1505.2,326.9,-0.8,1.8,2470.798,13.28,0.058,130.2
2022-02-12T02:49:03,42.805,6.029,0.057,-0.053,-0.009,104.0,103.0,102.0,13.4,1505.2,329.2,-0.7,1.8,2470.804,13.28,0.077,132.9
2022-02-12T02:52:03,42.805,6.029,0.073,-0.057,0.008,103.0,103.0,101.0,13.4,1505.2,325.8,-0.7,1.8,2470.789,13.28,0.092,128.0
2022-02-12T02:55:03,42.805,6.029,0.061,-0.045,-0.024,103.0,103.0,101.0,13.4,1505.2,327.9,-0.7,1.8,2470.783,13.28,0.075,126.4
2022-02-12T02:58:03,42.805,6.029,0.062,-0.052,-0.001,103.0,103.0,101.0,13.3,1505.2,325.2,-0.8,1.8,2470.774,13.28,0.08,130.0
2022-02-12T03:04:03,42.805,6.029,0.054,-0.061,-0.008,104.0,103.0,102.0,13.3,1505.2,325.2,-0.7,1.8,2470.808,13.28,0.081,138.5
2022-02-12T03:07:03,42.805,6.029,0.066,-0.053,-0.018,103.0,103.0,102.0,13.4,1505.2,324.1,-0.8,1.9,2470.798,13.28,0.084,128.8
2022-02-12T03:10:03,42.805,6.029,0.044,-0.05,-0.019,104.0,104.0,103.0,13.4,1505.2,324.8,-0.8,1.8,2470.791,13.28,0.066,138.7
2022-02-12T03:13:03,42.805,6.029,0.057,-0.061,-0.014,105.0,104.0,101.0,13.4,1505.2,330.0,-0.7,1.8,2470.778,13.28,0.083,136.9
2022-02-12T03:16:03,42.805,6.029,0.047,-0.047,-0.015,105.0,103.0,101.0,13.4,1505.2,326.1,-0.8,1.8,2470.783,13.28,0.066,135.0
2022-02-12T03:19:03,42.805,6.029,0.026,-0.041,-0.001,104.0,102.0,102.0,13.3,1505.2,327.4,-0.8,1.8,2470.822,13.28,0.048,147.6
2022-02-12T03:22:03,42.805,6.029,0.066,-0.041,-0.011,103.0,103.0,102.0,13.4,1505.2,331.2,-0.8,1.8,2470.827,13.28,0.077,121.8
2022-02-12T03:25:03,42.805,6.029,0.031,-0.048,0.002,103.0,104.0,102.0,13.4,1505.2,324.2,-0.8,1.8,2470.797,13.28,0.057,147.1
2022-02-12T03:28:03,42.805,6.029,0.045,-0.049,-0.007,103.0,103.0,101.0,13.3,1505.2,326.1,-0.8,1.8,2470.735,13.28,0.066,137.4
2022-02-12T03:31:03,42.805,6.029,0.058,-0.043,-0.043,102.0,103.0,101.0,13.4,1505.2,330.7,-0.7,1.8,2470.768,13.28,0.072,126.6
2022-02-12T03:34:03,42.805,6.029,0.037,-0.057,-0.037,103.0,104.0,101.0,13.4,1505.2,330.2,-0.8,1.8,2470.775,13.28,0.067,147.0
2022-02-12T03:37:03,42.805,6.029,0.052,-0.042,-0.051,104.0,103.0,102.0,13.3,1505.2,326.8,-0.7,1.8,2470.768,13.28,0.066,128.9
2022-02-12T03:40:03,42.805,6.029,0.038,-0.046,-0.008,103.0,104.0,103.0,13.3,1505.2,326.3,-0.8,1.8,2470.807,13.28,0.059,140.4
2022-02-12T03:43:03,42.805,6.029,0.064,-0.045,-0.013,105.0,102.0,103.0,13.4,1505.2,327.2,-0.8,1.8,2470.782,13.28,0.078,125.1
2022-02-12T03:46:03,42.805,6.029,0.056,-0.036,-0.018,105.0,105.0,101.0,13.3,1505.2,329.1,-0.7,1.8,2470.777,13.28,0.066,122.7
2022-02-12T03:49:03,42.805,6.029,0.041,-0.055,0.008,104.0,104.0,103.0,13.3,1505.2,325.6,-0.8,1.8,2470.767,13.28,0.068,143.3
2022-02-12T03:52:03,42.805,6.029,0.045,-0.057,0.001,104.0,104.0,103.0,13.4,1505.2,331.9,-0.7,1.8,2470.804,13.28,0.072,141.7
2022-02-12T03:55:03,42.805,6.029,0.05,-0.021,-0.012,105.0,104.0,102.0,13.4,1505.2,327.2,-0.7,1.8,2470.786,13.28,0.054,112.8
2022-02-12T03:58:03,42.805,6.029,0.034,-0.043,0.0,106.0,104.0,102.0,13.4,1505.2,325.7,-0.8,1.8,2470.766,13.28,0.054,141.7
2022-02-12T04:04:03,42.805,6.029,0.036,-0.039,0.01,106.0,105.0,103.0,13.4,1505.2,323.9,-0.8,1.8,2470.812,13.28,0.053,137.3
2022-02-12T04:07:03,42.805,6.029,0.072,-0.049,0.013,105.0,105.0,102.0,13.3,1505.2,323.7,-0.7,1.9,2470.797,13.28,0.087,124.2
2022-02-12T04:10:03,42.805,6.029,0.05,-0.056,-0.028,105.0,104.0,103.0,13.3,1505.2,327.4,-0.8,1.8,2470.785,13.28,0.075,138.2
2022-02-12T04:13:03,42.805,6.029,0.044,-0.033,-0.011,106.0,104.0,102.0,13.3,1505.2,325.6,-0.7,1.8,2470.772,13.28,0.055,126.9
2022-02-12T04:16:03,42.805,6.029,0.041,-0.052,-0.009,105.0,106.0,102.0,13.4,1505.2,329.3,-0.7,1.8,2470.792,13.28,0.066,141.7
2022-02-12T04:19:03,42.805,6.029,0.051,-0.023,-0.006,105.0,104.0,103.0,13.4,1505.2,324.0,-0.8,1.8,2470.809,13.28,0.055,114.3
2022-02-12T04:22:03,42.805,6.029,0.016,-0.036,-0.029,104.0,105.0,103.0,13.3,1505.2,332.2,-0.7,1.8,2470.783,13.28,0.039,156.0
2022-02-12T04:25:03,42.805,6.029,0.058,-0.054,0.008,105.0,105.0,103.0,13.3,1505.2,329.3,-0.8,1.8,2470.795,13.28,0.079,133.0
2022-02-12T04:28:03,42.805,6.029,0.047,-0.041,0.002,103.0,104.0,104.0,13.4,1505.2,326.0,-0.7,1.8,2470.791,13.28,0.062,131.1
2022-02-12T04:31:03,42.805,6.029,0.046,-0.052,0.027,105.0,103.0,103.0,13.3,1505.2,326.3,-0.8,1.8,2470.765,13.28,0.069,138.5
2022-02-12T04:34:03,42.805,6.029,0.062,-0.045,-0.025,105.0,104.0,103.0,13.3,1505.2,326.6,-0.8,1.8,2470.773,13.28,0.076,126.0
2022-02-12T04:37:03,42.805,6.029,0.043,-0.066,-0.03,104.0,103.0,103.0,13.3,1505.2,329.8,-0.7,1.8,2470.773,13.28,0.078,146.9
2022-02-12T04:40:03,42.805,6.029,0.04,-0.036,-0.011,106.0,104.0,103.0,13.4,1505.2,325.7,-0.8,1.8,2470.774,13.28,0.053,132.0
2022-02-12T04:43:03,42.805,6.029,0.05,-0.037,-0.013,106.0,104.0,102.0,13.4,1505.2,328.9,-0.7,1.8,2470.761,13.28,0.062,126.5
2022-02-12T04:46:03,42.805,6.029,0.045,-0.036,-0.029,104.0,104.0,103.0,13.4,1505.2,327.4,-0.8,1.8,2470.783,13.28,0.057,128.7
2022-02-12T04:49:03,42.805,6.029,0.025,-0.033,-0.011,103.0,105.0,102.0,13.4,1505.2,324.2,-0.8,1.8,2470.842,13.28,0.041,142.8
2022-02-12T04:52:03,42.805,6.029,0.047,-0.043,-0.004,105.0,105.0,102.0,13.3,1505.2,329.5,-0.8,1.8,2470.78,13.28,0.063,132.5
2022-02-12T04:55:03,42.805,6.029,0.026,-0.021,-0.04,104.0,105.0,102.0,13.4,1505.2,331.0,-0.8,1.8,2470.797,13.28,0.033,128.9
2022-02-12T04:58:03,42.805,6.029,0.049,-0.049,-0.031,104.0,105.0,102.0,13.4,1505.2,323.6,-0.7,1.8,2470.77,13.28,0.069,135.0
2022-02-12T05:04:03,42.805,6.029,0.043,-0.026,0.015,105.0,103.0,102.0,13.3,1505.2,331.0,-0.8,1.8,2470.814,13.28,0.05,121.2
2022-02-12T05:07:03,42.805,6.029,0.031,-0.057,-0.037,105.0,104.0,102.0,13.4,1505.2,326.9,-0.8,1.8,2470.796,13.28,0.064,151.5
2022-02-12T05:10:03,42.805,6.029,0.03,-0.061,-0.022,104.0,105.0,103.0,13.3,1505.2,328.3,-0.8,1.8,2470.81,13.28,0.067,153.8
2022-02-12T05:13:03,42.805,6.029,0.046,-0.053,-0.019,104.0,102.0,103.0,13.4,1505.2,324.2,-0.7,1.8,2470.756,13.28,0.07,139.0
2022-02-12T05:16:03,42.805,6.029,0.037,-0.031,-0.019,104.0,104.0,101.0,13.4,1505.2,331.2,-0.7,1.8,2470.798,13.28,0.048,130.0
2022-02-12T05:19:03,42.805,6.029,0.04,-0.047,-0.064,103.0,103.0,101.0,13.3,1505.2,329.5,-0.8,1.8,2470.805,13.28,0.061,139.6
2022-02-12T05:22:03,42.805,6.029,0.036,-0.028,-0.001,104.0,104.0,102.0,13.3,1505.2,325.0,-0.7,1.8,2470.784,13.28,0.045,127.9
2022-02-12T05:25:03,42.805,6.029,0.042,-0.047,-0.012,104.0,103.0,101.0,13.3,1505.2,328.8,-0.8,1.8,2470.794,13.28,0.063,138.2
2022-02-12T05:28:03,42.805,6.029,0.059,-0.039,-0.003,105.0,104.0,102.0,13.4,1505.2,324.0,-0.7,1.8,2470.791,13.28,0.07,123.5
2022-02-12T05:31:03,42.805,6.029,0.042,-0.044,-0.008,104.0,104.0,101.0,13.3,1505.2,328.3,-0.8,1.8,2470.794,13.28,0.06,136.3
2022-02-12T05:34:03,42.805,6.029,0.034,-0.028,0.001,104.0,103.0,101.0,13.4,1505.2,331.6,-0.8,1.8,2470.798,13.28,0.044,129.5
2022-02-12T05:37:03,42.805,6.029,0.053,-0.03,-0.002,104.0,103.0,102.0,13.4,1505.2,329.2,-0.8,1.8,2470.793,13.28,0.06,119.5
2022-02-12T05:40:03,42.805,6.029,0.048,-0.009,-0.014,104.0,103.0,103.0,13.3,1505.2,325.5,-0.7,1.8,2470.813,13.28,0.048,100.6
2022-02-12T05:43:03,42.805,6.029,0.06,-0.049,-0.013,104.0,104.0,102.0,13.4,1505.2,327.3,-0.7,1.8,2470.806,13.28,0.077,129.2
2022-02-12T05:46:03,42.805,6.029,0.027,-0.036,0.0,104.0,104.0,103.0,13.3,1505.2,328.0,-0.8,1.8,2470.763,13.28,0.045,143.1
2022-02-12T05:49:03,42.805,6.029,0.038,-0.023,-0.037,103.0,103.0,102.0,13.4,1505.2,329.1,-0.7,1.8,2470.819,13.28,0.044,121.2
2022-02-12T05:52:03,42.805,6.029,0.057,-0.06,-0.031,102.0,103.0,102.0,13.4,1505.2,329.4,-0.8,1.8,2470.774,13.28,0.082,136.5
2022-02-12T05:55:03,42.805,6.029,0.035,-0.03,0.006,104.0,104.0,102.0,13.3,1505.2,324.0,-0.7,1.8,2470.799,13.28,0.046,130.6
2022-02-12T05:58:03,42.805,6.029,0.043,-0.055,-0.019,104.0,103.0,101.0,13.4,1505.2,327.6,-0.8,1.8,2470.782,13.28,0.069,142.0
2022-02-12T06:04:03,42.805,6.029,0.049,-0.036,-0.007,105.0,103.0,102.0,13.3,1505.2,323.3,-0.8,1.9,2470.823,13.28,0.06,126.3
2022-02-12T06:07:03,42.805,6.029,0.036,-0.04,0.005,104.0,103.0,101.0,13.3,1505.2,328.8,-0.7,1.8,2470.806,13.28,0.053,138.0
2022-02-12T06:10:03,42.805,6.029,0.034,-0.025,0.0,103.0,104.0,102.0,13.3,1505.2,331.9,-0.8,1.8,2470.821,13.28,0.042,126.3
2022-02-12T06:13:03,42.805,6.029,0.036,-0.052,-0.036,103.0,104.0,102.0,13.4,1505.2,326.0,-0.8,1.8,2470.834,13.28,0.063,145.3
2022-02-12T06:16:03,42.805,6.029,0.034,-0.06,-0.029,104.0,103.0,101.0,13.3,1505.2,327.0,-0.7,1.8,2470.843,13.28,0.068,150.5
2022-02-12T06:19:03,42.805,6.029,0.01,-0.002,0.005,103.0,103.0,103.0,13.4,1505.2,324.3,-0.7,1.8,2470.805,13.28,0.01,101.3
2022-02-12T06:22:03,42.805,6.029,0.045,-0.023,-0.012,105.0,103.0,103.0,13.4,1505.2,327.1,-0.8,1.8,2470.825,13.28,0.05,117.1
2022-02-12T06:25:03,42.805,6.029,0.03,-0.029,-0.028,103.0,104.0,103.0,13.3,1505.2,325.6,-0.8,1.8,2470.826,13.28,0.041,134.0
2022-02-12T06:28:03,42.805,6.029,0.027,-0.035,-0.031,104.0,104.0,102.0,13.3,1505.2,325.6,-0.8,1.8,2470.792,13.28,0.044,142.3
2022-02-12T06:31:03,42.805,6.029,0.048,-0.013,0.011,103.0,106.0,102.0,13.4,1505.2,326.1,-0.8,1.8,2470.796,13.28,0.049,105.2
2022-02-12T06:34:03,42.805,6.029,0.045,-0.034,0.002,102.0,104.0,101.0,13.4,1505.2,324.6,-0.8,1.8,2470.841,13.28,0.056,127.1
2022-02-12T06:37:03,42.805,6.029,0.057,-0.04,-0.034,102.0,103.0,102.0,13.3,1505.2,327.8,-0.7,1.8,2470.831,13.28,0.069,125.1
2022-02-12T06:40:03,42.805,6.029,0.024,-0.022,-0.043,104.0,103.0,101.0,13.4,1505.2,323.6,-0.7,1.8,2470.841,13.28,0.032,132.5
2022-02-12T06:43:03,42.805,6.029,0.038,-0.036,-0.01,103.0,103.0,103.0,13.3,1505.2,325.6,-0.7,1.8,2470.789,13.28,0.052,133.5
2022-02-12T06:46:03,42.805,6.029,0.021,-0.022,-0.004,103.0,104.0,102.0,13.3,1505.2,323.3,-0.7,1.8,2470.816,13.28,0.03,136.3
2022-02-12T06:49:03,42.805,6.029,0.032,-0.013,-0.015,104.0,103.0,102.0,13.4,1505.2,327.5,-0.8,1.8,2470.794,13.28,0.034,112.1
2022-02-12T06:52:03,42.805,6.029,0.029,-0.034,-0.007,103.0,103.0,101.0,13.4,1505.2,332.1,-0.7,1.8,2470.81,13.28,0.044,139.5
2022-02-12T06:55:03,42.805,6.029,0.052,-0.022,-0.004,103.0,104.0,102.0,13.3,1505.2,325.7,-0.8,1.8,2470.807,13.28,0.056,112.9
2022-02-12T06:58:03,42.805,6.029,0.044,-0.025,-0.017,104.0,103.0,103.0,13.4,1505.2,328.4,-0.8,1.9,2470.801,13.28,0.05,119.6
2022-02-12T07:04:03,42.805,6.029,0.035,-0.034,-0.019,103.0,102.0,101.0,13.4,1505.2,324.3,-0.8,1.8,2470.828,13.28,0.048,134.2
2022-02-12T07:07:03,42.805,6.029,0.045,-0.038,-0.013,103.0,102.0,102.0,13.4,1505.2,324.3,-0.7,1.8,2470.832,13.28,0.058,130.2
2022-02-12T07:10:03,42.805,6.029,0.039,-0.018,-0.019,104.0,103.0,102.0,13.4,1505.2,326.9,-0.8,1.8,2470.819,13.28,0.042,114.8
2022-02-12T07:13:03,42.805,6.029,0.053,-0.022,-0.003,103.0,105.0,101.0,13.4,1505.2,327.2,-0.7,1.8,2470.784,13.28,0.057,112.5
2022-02-12T07:16:03,42.805,6.029,0.031,-0.032,-0.02,103.0,103.0,101.0,13.4,1505.2,328.4,-0.7,1.8,2470.768,13.28,0.044,135.9
2022-02-12T07:19:03,42.805,6.029,0.041,-0.046,0.0,103.0,102.0,101.0,13.3,1505.2,324.6,-0.7,1.8,2470.789,13.28,0.061,138.3
2022-02-12T07:22:03,42.805,6.029,0.066,-0.032,-0.006,102.0,104.0,102.0,13.4,1505.2,328.3,-0.8,1.8,2470.782,13.28,0.073,115.9
2022-02-12T07:25:03,42.805,6.029,0.024,-0.041,-0.027,104.0,103.0,101.0,13.4,1505.2,329.4,-0.8,1.8,2470.771,13.28,0.047,149.7
2022-02-12T07:28:03,42.805,6.029,0.041,-0.03,-0.009,104.0,103.0,100.0,13.3,1505.2,323.6,-0.8,1.8,2470.793,13.28,0.05,126.2
2022-02-12T07:31:03,42.805,6.029,0.045,-0.009,-0.006,104.0,102.0,101.0,13.3,1505.2,325.4,-0.8,1.8,2470.802,13.28,0.045,101.3
2022-02-12T07:34:03,42.805,6.029,0.042,-0.01,0.006,101.0,102.0,102.0,13.4,1505.2,325.2,-0.7,1.9,2470.78,13.28,0.043,103.4
2022-02-12T07:37:03,42.805,6.029,0.048,0.0,-0.003,105.0,104.0,100.0,13.4,1505.2,324.3,-0.8,1.8,2470.763,13.28,0.048,90.0
2022-02-12T07:40:03,42.805,6.029,0.051,-0.043,-0.01,104.0,104.0,101.0,13.3,1505.2,329.6,-0.7,1.8,2470.773,13.28,0.066,130.1
2022-02-12T07:43:03,42.805,6.029,0.035,-0.045,-0.044,103.0,103.0,101.0,13.4,1505.2,326.6,-0.8,1.8,2470.733,13.28,0.057,142.1
2022-02-12T07:46:03,42.805,6.029,0.039,-0.009,0.0,103.0,104.0,102.0,13.4,1505.2,324.9,-0.8,1.8,2470.8,13.28,0.04,103.0
2022-02-12T07:49:03,42.805,6.029,0.037,-0.025,-0.002,103.0,102.0,101.0,13.4,1505.2,325.2,-0.7,1.8,2470.76,13.28,0.044,124.0
2022-02-12T07:52:03,42.805,6.029,0.044,-0.014,-0.012,104.0,102.0,101.0,13.4,1505.2,327.4,-0.7,1.8,2470.775,13.28,0.046,107.6
2022-02-12T07:55:03,42.805,6.029,0.05,-0.044,-0.026,103.0,105.0,101.0,13.4,1505.2,327.8,-0.8,1.8,2470.819,13.28,0.066,131.3
2022-02-12T07:58:03,42.805,6.029,0.048,-0.031,-0.004,104.0,102.0,102.0,13.4,1505.2,329.1,-0.7,1.8,2470.76,13.28,0.057,122.9
2022-02-12T08:04:03,42.805,6.029,0.033,-0.026,0.005,102.0,103.0,101.0,13.4,1505.2,329.2,-0.7,1.8,2470.765,13.28,0.042,128.2
2022-02-12T08:07:03,42.805,6.029,0.023,-0.014,-0.002,102.0,103.0,102.0,13.3,1505.2,326.3,-0.8,1.8,2470.794,13.28,0.026,121.3
2022-02-12T08:10:03,42.805,6.029,0.039,-0.022,-0.011,104.0,102.0,101.0,13.4,1505.2,331.3,-0.8,1.9,2470.79,13.28,0.044,119.4
2022-02-12T08:13:03,42.805,6.029,0.031,-0.014,0.012,104.0,103.0,102.0,13.3,1505.2,325.2,-0.7,1.8,2470.79,13.28,0.034,114.3
2022-02-12T08:16:03,42.805,6.029,0.019,-0.003,0.007,104.0,104.0,102.0,13.3,1505.2,330.9,-0.8,1.9,2470.81,13.28,0.019,99.0
2022-02-12T08:19:03,42.805,6.029,0.042,-0.012,0.022,104.0,104.0,102.0,13.4,1505.2,327.5,-0.8,1.8,2470.787,13.28,0.043,105.9
2022-02-12T08:22:03,42.805,6.029,0.048,-0.027,-0.021,104.0,101.0,101.0,13.4,1505.2,323.9,-0.7,1.8,2470.793,13.28,0.055,119.4
2022-02-12T08:25:03,42.805,6.029,0.032,-0.036,0.003,103.0,102.0,101.0,13.3,1505.2,325.4,-0.8,1.8,2470.782,13.28,0.048,138.4
2022-02-12T08:28:03,42.805,6.029,0.028,-0.031,-0.023,104.0,103.0,101.0,13.4,1505.2,323.6,-0.8,1.8,2470.743,13.28,0.041,137.9
2022-02-12T08:31:03,42.805,6.029,0.041,-0.032,-0.012,102.0,102.0,101.0,13.3,1505.2,329.8,-0.7,1.9,2470.752,13.28,0.052,128.0
2022-02-12T08:34:03,42.805,6.029,0.04,-0.03,-0.008,102.0,102.0,101.0,13.4,1505.2,329.3,-0.8,1.8,2470.768,13.28,0.05,126.9
2022-02-12T08:37:03,42.805,6.029,0.046,-0.018,0.01,103.0,103.0,101.0,13.3,1505.2,323.0,-0.8,1.8,2470.785,13.28,0.049,111.4
2022-02-12T08:40:03,42.805,6.029,0.038,-0.043,-0.024,102.0,102.0,101.0,13.4,1505.2,329.8,-0.7,1.9,2470.774,13.28,0.057,138.5
2022-02-12T08:43:03,42.805,6.029,0.059,-0.024,-0.002,103.0,103.0,101.0,13.3,1505.2,324.4,-0.8,1.8,2470.772,13.28,0.063,112.1
2022-02-12T08:46:03,42.805,6.029,0.025,-0.03,-0.008,103.0,103.0,102.0,13.4,1505.2,328.9,-0.8,1.8,2470.802,13.28,0.039,140.2
2022-02-12T08:49:03,42.805,6.029,0.051,-0.042,-0.017,103.0,103.0,101.0,13.4,1505.2,325.0,-0.7,1.8,2470.773,13.28,0.066,129.5
2022-02-12T08:52:03,42.805,6.029,0.043,-0.045,-0.018,103.0,104.0,102.0,13.4,1505.2,323.6,-0.7,1.8,2470.746,13.28,0.062,136.3
2022-02-12T08:55:03,42.805,6.029,0.027,-0.032,-0.009,103.0,102.0,101.0,13.4,1505.2,325.4,-0.7,1.8,2470.737,13.28,0.041,139.8
2022-02-12T08:58:03,42.805,6.029,0.026,-0.036,-0.019,103.0,103.0,102.0,13.4,1505.2,327.0,-0.8,1.8,2470.758,13.28,0.044,144.2
2022-02-12T09:04:03,42.805,6.029,0.03,-0.024,-0.022,103.0,102.0,101.0,13.3,1505.2,327.6,-0.7,1.9,2470.817,13.28,0.038,128.7
2022-02-12T09:07:03,42.805,6.029,0.045,-0.014,0.008,102.0,103.0,101.0,13.4,1505.2,330.0,-0.8,1.8,2470.774,13.28,0.047,107.3
2022-02-12T09:10:03,42.805,6.029,0.028,-0.019,0.007,102.0,102.0,101.0,13.3,1505.2,328.9,-0.7,1.8,2470.774,13.28,0.033,124.2
2022-02-12T09:13:03,42.805,6.029,0.046,-0.011,-0.02,103.0,102.0,101.0,13.3,1505.2,328.2,-0.8,1.8,2470.797,13.28,0.047,103.4
2022-02-12T09:16:03,42.805,6.029,0.051,-0.034,0.0,104.0,102.0,101.0,13.4,1505.2,325.4,-0.8,1.9,2470.803,13.28,0.061,123.7
2022-02-12T09:19:03,42.805,6.029,0.044,-0.046,-0.02,103.0,102.0,101.0,13.3,1505.2,330.9,-0.7,1.8,2470.772,13.28,0.063,136.3
2022-02-12T09:22:03,42.805,6.029,0.042,-0.043,-0.022,103.0,101.0,101.0,13.4,1505.2,324.2,-0.7,1.8,2470.75,13.28,0.06,135.7
2022-02-12T09:25:03,42.805,6.029,0.034,-0.035,-0.001,102.0,102.0,100.0,13.4,1505.2,324.8,-0.7,1.8,2470.778,13.28,0.048,135.8
2022-02-12T09:28:03,42.805,6.029,0.034,-0.015,0.016,103.0,102.0,101.0,13.3,1505.2,324.8,-0.8,1.8,2470.736,13.28,0.037,113.8
2022-02-12T09:31:03,42.805,6.029,0.039,-0.029,0.01,103.0,103.0,101.0,13.3,1505.2,327.8,-0.7,1.8,2470.802,13.28,0.048,126.6
2022-02-12T09:34:03,42.805,6.029,0.036,-0.027,-0.037,103.0,101.0,101.0,13.4,1505.2,330.0,-0.7,1.8,2470.8,13.28,0.045,126.9
2022-02-12T09:37:03,42.805,6.029,0.011,-0.024,-0.008,101.0,101.0,101.0,13.4,1505.2,328.5,-0.7,1.8,2470.804,13.28,0.026,155.4
2022-02-12T09:40:03,42.805,6.029,0.023,-0.014,-0.006,102.0,102.0,101.0,13.3,1505.2,324.4,-0.8,1.8,2470.731,13.28,0.026,121.3
2022-02-12T09:43:03,42.805,6.029,0.007,-0.025,-0.027,101.0,102.0,100.0,13.4,1505.2,330.0,-0.7,1.8,2470.774,13.28,0.025,164.4
2022-02-12T09:46:03,42.805,6.029,0.038,-0.03,-0.01,101.0,101.0,101.0,13.4,1505.2,325.8,-0.8,1.8,2470.76,13.28,0.048,128.3
2022-02-12T09:49:03,42.805,6.029,0.032,-0.008,-0.021,102.0,102.0,101.0,13.3,1505.2,325.2,-0.8,1.8,2470.761,13.28,0.032,104.0
2022-02-12T09:52:03,42.805,6.029,0.054,-0.025,0.004,101.0,101.0,101.0,13.4,1505.2,331.4,-0.8,1.8,2470.77,13.28,0.059,114.8
2022-02-12T09:55:03,42.805,6.029,0.031,-0.023,-0.004,101.0,101.0,101.0,13.4,1505.2,324.9,-0.8,1.8,2470.75,13.28,0.038,126.6
2022-02-12T09:58:03,42.805,6.029,0.03,-0.018,-0.001,102.0,101.0,101.0,13.4,1505.2,327.8,-0.7,1.8,2470.738,13.28,0.034,121.0
2022-02-12T10:04:03,42.805,6.029,0.05,-0.023,-0.027,101.0,101.0,100.0,13.3,1505.2,323.7,-0.7,1.8,2470.799,13.28,0.055,114.7
2022-02-12T10:07:03,42.805,6.029,0.055,-0.034,-0.007,101.0,101.0,100.0,13.3,1505.2,331.5,-0.8,1.8,2470.766,13.28,0.064,121.7
2022-02-12T10:10:03,42.805,6.029,0.026,-0.032,-0.013,100.0,102.0,100.0,13.4,1505.2,325.9,-0.8,1.8,2470.75,13.28,0.041,140.9
2022-02-12T10:13:03,42.805,6.029,0.026,-0.044,-0.01,101.0,101.0,101.0,13.3,1505.2,328.8,-0.8,1.8,2470.724,13.28,0.051,149.4
2022-02-12T10:16:03,42.805,6.029,0.013,-0.003,-0.015,100.0,101.0,100.0,13.4,1505.2,330.0,-0.8,1.8,2470.774,13.28,0.013,103.0
2022-02-12T10:19:03,42.805,6.029,0.018,0.012,0.014,101.0,100.0,102.0,13.3,1505.2,326.4,-0.8,1.8,2470.715,13.28,0.021,56.3
2022-02-12T10:22:03,42.805,6.029,0.028,-0.038,-0.011,100.0,102.0,101.0,13.4,1505.2,328.5,-0.8,1.8,2470.735,13.28,0.047,143.6
2022-02-12T10:25:03,42.805,6.029,0.044,-0.031,-0.019,100.0,101.0,100.0,13.3,1505.2,324.7,-0.8,1.9,2470.765,13.28,0.053,125.2
2022-02-12T10:28:03,42.805,6.029,0.028,-0.021,-0.004,100.0,101.0,100.0,13.4,1505.2,329.0,-0.7,1.8,2470.757,13.28,0.035,126.9
2022-02-12T10:31:03,42.805,6.029,0.046,-0.041,-0.014,101.0,100.0,100.0,13.4,1505.2,329.3,-0.7,1.8,2470.708,13.28,0.061,131.7